Location: La Comballaz
(46.3780°N, 7.0817°E)
Time: 23:33:58
(UTC+00:00)

USA 234 - Pass Details

Date: 09 April 2020
Orbit: 1102 x 1106 km, 123.0° (Epoch: 14 May)

Event Time Altitude Azimuth Distance (km) Brightness Sun altitude
Rises 21:34:37 0° 52° (NE) 3,926 6.2 -29.5°
Reaches altitude 10° 21:37:06 10° 51° (NE) 2,966 5.6 -29.8°
Maximum altitude 21:43:38 78° 327° (NNW) 1,129 3.3 -30.4°
Drops below altitude 10° 21:50:10 10° 242° (WSW) 2,958 5.5 -31.0°
Sets 21:52:39 0° 241° (WSW) 3,914 6.2 -31.2°
